Time,TemperatureF,DewpointF,PressureIn,WindDirection,WindDirectionDegrees,WindSpeedMPH,WindSpeedGustMPH,Humidity,HourlyPrecipIn,Conditions,Clouds,dailyrainin,SoftwareType,DateUTC
2013-11-12 00:04:00,18.1,10.6,29.91,North,357,0.0,0.0,72,0.00,,---,0.00,VWS V12.08,2013-11-12 06:04:00,
2013-11-12 00:09:00,17.9,10.4,29.91,North,357,0.0,0.0,72,0.00,,---,0.00,VWS V12.08,2013-11-12 06:09:00,
2013-11-12 00:15:00,17.8,10.3,29.91,North,357,0.0,0.0,72,0.00,,---,0.00,VWS V12.08,2013-11-12 06:15:00,
2013-11-12 00:21:00,17.7,10.2,29.92,North,0,0.0,0.0,72,0.00,,---,0.00,VWS V12.08,2013-11-12 06:21:00,
2013-11-12 00:26:00,17.6,10.1,29.92,North,0,0.0,0.0,72,0.00,,---,0.00,VWS V12.08,2013-11-12 06:26:00,
2013-11-12 00:31:00,17.5,10.3,29.92,North,354,0.0,0.0,73,0.00,,---,0.00,VWS V12.08,2013-11-12 06:31:00,
2013-11-12 00:37:00,17.5,10.0,29.92,North,0,0.0,0.0,72,0.00,,---,0.00,VWS V12.08,2013-11-12 06:37:00,
2013-11-12 00:42:00,17.3,10.1,29.92,North,358,0.0,0.0,73,0.00,,---,0.00,VWS V12.08,2013-11-12 06:42:00,
2013-11-12 00:47:00,17.2,9.7,29.92,North,0,0.0,0.0,72,0.00,,---,0.00,VWS V12.08,2013-11-12 06:47:00,
2013-11-12 00:52:00,17.1,9.9,29.91,North,356,0.0,0.0,73,0.00,,---,0.00,VWS V12.08,2013-11-12 06:52:00,
2013-11-12 00:57:00,17.0,9.6,29.91,North,354,0.0,0.0,72,0.00,,---,0.00,VWS V12.08,2013-11-12 06:57:00,
2013-11-12 01:03:00,16.9,9.8,29.92,North,356,0.0,0.0,73,0.00,,---,0.00,VWS V12.08,2013-11-12 07:03:00,
2013-11-12 01:09:00,16.7,9.6,29.92,North,0,0.0,0.0,73,0.00,,---,0.00,VWS V12.08,2013-11-12 07:09:00,
2013-11-12 01:14:00,16.6,9.5,29.92,North,0,0.0,0.0,73,0.00,,---,0.00,VWS V12.08,2013-11-12 07:14:00,
2013-11-12 01:19:00,16.4,9.3,29.92,North,355,0.0,0.0,73,0.00,,---,0.00,VWS V12.08,2013-11-12 07:19:00,
2013-11-12 01:24:00,16.3,9.2,29.92,North,353,0.0,0.0,73,0.00,,---,0.00,VWS V12.08,2013-11-12 07:24:00,
2013-11-12 01:30:00,16.3,9.5,29.92,North,359,0.0,0.0,74,0.00,,---,0.00,VWS V12.08,2013-11-12 07:30:00,
2013-11-12 01:35:00,16.1,9.3,29.93,North,0,0.0,0.0,74,0.00,,---,0.00,VWS V12.08,2013-11-12 07:35:00,
2013-11-12 01:40:00,16.0,9.2,29.93,North,0,0.0,0.0,74,0.00,,---,0.00,VWS V12.08,2013-11-12 07:40:00,
2013-11-12 01:45:00,16.0,9.2,29.93,North,357,0.0,0.0,74,0.00,,---,0.00,VWS V12.08,2013-11-12 07:45:00,
2013-11-12 01:50:00,15.9,9.1,29.94,North,357,0.0,0.0,74,0.00,,---,0.00,VWS V12.08,2013-11-12 07:50:00,
2013-11-12 01:55:00,15.8,9.0,29.93,North,356,0.0,0.0,74,0.00,,---,0.00,VWS V12.08,2013-11-12 07:55:00,
2013-11-12 02:00:00,15.6,8.8,29.94,North,355,0.0,0.0,74,0.00,,---,0.00,VWS V12.08,2013-11-12 08:00:00,
2013-11-12 02:05:00,15.6,8.8,29.94,North,0,0.0,0.0,74,0.00,,---,0.00,VWS V12.08,2013-11-12 08:05:00,
2013-11-12 02:11:00,15.5,8.7,29.94,North,0,0.0,0.0,74,0.00,,---,0.00,VWS V12.08,2013-11-12 08:11:00,
2013-11-12 02:17:00,15.4,8.6,29.94,North,353,0.0,0.0,74,0.00,,---,0.00,VWS V12.08,2013-11-12 08:17:00,
2013-11-12 02:22:00,15.4,8.6,29.95,NNW,344,0.0,0.0,74,0.00,,---,0.00,VWS V12.08,2013-11-12 08:22:00,
2013-11-12 02:27:00,15.4,8.6,29.95,North,358,0.0,0.0,74,0.00,,---,0.00,VWS V12.08,2013-11-12 08:27:00,
2013-11-12 02:32:00,15.4,8.6,29.95,North,351,0.0,0.0,74,0.00,,---,0.00,VWS V12.08,2013-11-12 08:32:00,
2013-11-12 02:37:00,15.3,8.5,29.95,North,359,0.0,0.0,74,0.00,,---,0.00,VWS V12.08,2013-11-12 08:37:00,
2013-11-12 02:42:00,15.2,8.4,29.95,North,355,0.0,0.0,74,0.00,,---,0.00,VWS V12.08,2013-11-12 08:42:00,
2013-11-12 02:47:00,15.1,8.3,29.96,North,359,0.0,0.0,74,0.00,,---,0.00,VWS V12.08,2013-11-12 08:47:00,
2013-11-12 02:52:00,15.0,8.2,29.95,North,0,0.0,0.0,74,0.00,,---,0.00,VWS V12.08,2013-11-12 08:52:00,
2013-11-12 02:57:00,15.0,8.2,29.96,North,359,0.0,0.0,74,0.00,,---,0.00,VWS V12.08,2013-11-12 08:57:00,
2013-11-12 03:02:00,15.0,8.2,29.96,North,0,0.0,0.0,74,0.00,,---,0.00,VWS V12.08,2013-11-12 09:02:00,
2013-11-12 03:07:00,14.9,8.1,29.95,North,0,0.0,0.0,74,0.00,,---,0.00,VWS V12.08,2013-11-12 09:07:00,
2013-11-12 03:12:00,14.9,8.1,29.95,North,0,0.0,0.0,74,0.00,,---,0.00,VWS V12.08,2013-11-12 09:12:00,
2013-11-12 03:17:00,14.8,8.0,29.96,North,355,0.0,0.0,74,0.00,,---,0.00,VWS V12.08,2013-11-12 09:17:00,
2013-11-12 03:23:00,14.8,8.0,29.96,North,359,0.0,0.0,74,0.00,,---,0.00,VWS V12.08,2013-11-12 09:23:00,
2013-11-12 03:29:00,14.8,8.3,29.97,NNW,328,0.0,0.0,75,0.00,,---,0.00,VWS V12.08,2013-11-12 09:29:00,
2013-11-12 03:34:00,14.8,8.3,29.97,North,0,0.0,0.0,75,0.00,,---,0.00,VWS V12.08,2013-11-12 09:34:00,
2013-11-12 03:39:00,14.8,8.3,29.96,North,0,0.0,0.0,75,0.00,,---,0.00,VWS V12.08,2013-11-12 09:39:00,
2013-11-12 03:44:00,14.8,8.0,29.97,North,355,0.0,0.0,74,0.00,,---,0.00,VWS V12.08,2013-11-12 09:44:00,
2013-11-12 03:49:00,14.7,7.9,29.97,North,351,0.0,0.0,74,0.00,,---,0.00,VWS V12.08,2013-11-12 09:49:00,
2013-11-12 03:54:00,14.6,7.8,29.97,North,357,0.0,0.0,74,0.00,,---,0.00,VWS V12.08,2013-11-12 09:54:00,
2013-11-12 03:59:00,14.6,7.8,29.97,North,355,0.0,0.0,74,0.00,,---,0.00,VWS V12.08,2013-11-12 09:59:00,
2013-11-12 04:04:00,14.5,7.7,29.97,North,356,0.0,0.0,74,0.00,,---,0.00,VWS V12.08,2013-11-12 10:04:00,
2013-11-12 04:10:00,14.5,7.7,29.97,North,0,0.0,0.0,74,0.00,,---,0.00,VWS V12.08,2013-11-12 10:10:00,
2013-11-12 04:15:00,14.4,7.6,29.97,NNW,348,0.0,0.0,74,0.00,,---,0.00,VWS V12.08,2013-11-12 10:15:00,
2013-11-12 04:20:00,14.4,7.6,29.96,North,358,0.0,0.0,74,0.00,,---,0.00,VWS V12.08,2013-11-12 10:20:00,
2013-11-12 04:25:00,14.4,7.6,29.97,North,354,0.0,0.0,74,0.00,,---,0.00,VWS V12.08,2013-11-12 10:25:00,
2013-11-12 04:30:00,14.2,7.4,29.98,NNW,341,0.0,0.0,74,0.00,,---,0.00,VWS V12.08,2013-11-12 10:30:00,
2013-11-12 04:35:00,14.1,7.3,29.98,North,350,0.0,0.0,74,0.00,,---,0.00,VWS V12.08,2013-11-12 10:35:00,
2013-11-12 04:41:00,14.1,7.3,29.98,North,0,0.0,0.0,74,0.00,,---,0.00,VWS V12.08,2013-11-12 10:41:00,
2013-11-12 04:46:00,14.0,7.2,29.98,North,0,0.0,0.0,74,0.00,,---,0.00,VWS V12.08,2013-11-12 10:46:00,
2013-11-12 04:51:00,13.9,7.2,29.98,North,0,0.0,0.0,74,0.00,,---,0.00,VWS V12.08,2013-11-12 10:51:00,
2013-11-12 04:56:00,13.8,7.1,29.98,North,355,0.0,0.0,74,0.00,,---,0.00,VWS V12.08,2013-11-12 10:56:00,
2013-11-12 05:01:00,13.7,7.0,29.99,North,349,0.0,0.0,74,0.00,,---,0.00,VWS V12.08,2013-11-12 11:01:00,
2013-11-12 05:07:00,13.7,7.0,29.99,North,0,0.0,0.0,74,0.00,,---,0.00,VWS V12.08,2013-11-12 11:07:00,
2013-11-12 05:12:00,13.6,6.9,29.99,North,350,0.0,0.0,74,0.00,,---,0.00,VWS V12.08,2013-11-12 11:12:00,
2013-11-12 05:17:00,13.7,7.0,29.99,North,352,0.0,0.0,74,0.00,,---,0.00,VWS V12.08,2013-11-12 11:17:00,
2013-11-12 05:22:00,13.6,6.9,30.00,North,349,0.0,0.0,74,0.00,,---,0.00,VWS V12.08,2013-11-12 11:22:00,
2013-11-12 05:27:00,13.5,6.8,30.00,NNW,346,0.0,0.0,74,0.00,,---,0.00,VWS V12.08,2013-11-12 11:27:00,
2013-11-12 05:32:00,13.5,6.8,30.01,North,352,0.0,0.0,74,0.00,,---,0.00,VWS V12.08,2013-11-12 11:32:00,
2013-11-12 05:37:00,13.5,6.8,30.01,NNW,345,0.0,0.0,74,0.00,,---,0.00,VWS V12.08,2013-11-12 11:37:00,
2013-11-12 05:42:00,13.4,6.7,30.01,North,357,0.0,0.0,74,0.00,,---,0.00,VWS V12.08,2013-11-12 11:42:00,
2013-11-12 05:47:00,13.4,6.7,30.01,North,353,0.0,0.0,74,0.00,,---,0.00,VWS V12.08,2013-11-12 11:47:00,
2013-11-12 05:52:00,13.4,6.7,30.01,North,0,0.0,0.0,74,0.00,,---,0.00,VWS V12.08,2013-11-12 11:52:00,
2013-11-12 05:58:00,13.3,6.6,30.01,NNW,345,0.0,0.0,74,0.00,,---,0.00,VWS V12.08,2013-11-12 11:58:00,
2013-11-12 06:04:00,13.2,6.5,30.01,North,349,0.0,0.0,74,0.00,,---,0.00,VWS V12.08,2013-11-12 12:04:00,
2013-11-12 06:09:00,13.1,6.4,30.02,North,359,0.0,0.0,74,0.00,,---,0.00,VWS V12.08,2013-11-12 12:09:00,
2013-11-12 06:14:00,13.0,6.3,30.02,North,356,0.0,0.0,74,0.00,,---,0.00,VWS V12.08,2013-11-12 12:14:00,
2013-11-12 06:19:00,12.9,6.2,30.02,NW,310,0.0,0.0,74,0.00,,---,0.00,VWS V12.08,2013-11-12 12:19:00,
2013-11-12 06:24:00,12.8,6.1,30.02,North,357,0.0,0.0,74,0.00,,---,0.00,VWS V12.08,2013-11-12 12:24:00,
2013-11-12 06:29:00,12.7,6.0,30.02,NNW,341,0.0,0.0,74,0.00,,---,0.00,VWS V12.08,2013-11-12 12:29:00,
2013-11-12 06:34:00,12.6,5.9,30.03,NNW,343,0.0,0.0,74,0.00,,---,0.00,VWS V12.08,2013-11-12 12:34:00,
2013-11-12 06:40:00,12.5,5.8,30.03,North,358,0.0,0.0,74,0.00,,---,0.00,VWS V12.08,2013-11-12 12:40:00,
2013-11-12 06:45:00,12.5,5.8,30.03,NNW,347,0.0,0.0,74,0.00,,---,0.00,VWS V12.08,2013-11-12 12:45:00,
2013-11-12 06:50:00,12.5,6.1,30.03,North,358,0.0,0.0,75,0.00,,---,0.00,VWS V12.08,2013-11-12 12:50:00,
2013-11-12 06:56:00,12.4,6.0,30.03,North,358,0.0,0.0,75,0.00,,---,0.00,VWS V12.08,2013-11-12 12:56:00,
2013-11-12 07:01:00,12.3,5.9,30.04,NNW,342,0.0,0.0,75,0.00,,---,0.00,VWS V12.08,2013-11-12 13:01:00,
2013-11-12 07:06:00,12.3,5.9,30.03,North,349,0.0,0.0,75,0.00,,---,0.00,VWS V12.08,2013-11-12 13:06:00,
2013-11-12 07:11:00,12.3,5.9,30.03,North,0,0.0,0.0,75,0.00,,---,0.00,VWS V12.08,2013-11-12 13:11:00,
2013-11-12 07:16:00,12.3,5.9,30.04,NNW,348,0.0,0.0,75,0.00,,---,0.00,VWS V12.08,2013-11-12 13:16:00,
2013-11-12 07:21:00,12.4,6.0,30.04,NNW,340,0.0,0.0,75,0.00,,---,0.00,VWS V12.08,2013-11-12 13:21:00,
2013-11-12 07:26:00,12.4,5.7,30.04,North,0,0.0,0.0,74,0.00,,---,0.00,VWS V12.08,2013-11-12 13:26:00,
2013-11-12 07:32:00,12.5,5.8,30.04,North,353,0.0,0.0,74,0.00,,---,0.00,VWS V12.08,2013-11-12 13:32:00,
2013-11-12 07:38:00,12.6,5.9,30.04,North,358,0.0,0.0,74,0.00,,---,0.00,VWS V12.08,2013-11-12 13:38:00,
2013-11-12 07:43:00,12.8,6.1,30.04,NNW,346,0.0,0.0,74,0.00,,---,0.00,VWS V12.08,2013-11-12 13:43:00,
2013-11-12 07:48:00,12.9,6.2,30.05,North,0,0.0,0.0,74,0.00,,---,0.00,VWS V12.08,2013-11-12 13:48:00,
2013-11-12 07:53:00,13.0,6.3,30.05,North,359,0.0,0.0,74,0.00,,---,0.00,VWS V12.08,2013-11-12 13:53:00,
2013-11-12 08:00:00,13.1,6.4,30.05,NNW,343,0.0,0.0,74,0.00,,---,0.00,VWS V12.08,2013-11-12 14:00:00,
2013-11-12 08:06:00,13.4,6.4,30.06,North,353,0.0,0.0,73,0.00,,---,0.00,VWS V12.08,2013-11-12 14:06:00,
2013-11-12 08:24:00,14.0,7.0,30.05,North,359,0.0,0.0,73,0.00,,---,0.00,VWS V12.08,2013-11-12 14:24:00,
2013-11-12 08:29:00,14.2,7.2,30.06,North,357,0.0,0.0,73,0.00,,---,0.00,VWS V12.08,2013-11-12 14:29:00,
2013-11-12 08:39:00,14.8,7.7,30.07,North,356,0.0,0.0,73,0.00,,---,0.00,VWS V12.08,2013-11-12 14:39:00,
2013-11-12 08:45:00,15.0,7.6,30.07,North,359,0.0,0.0,72,0.00,,---,0.00,VWS V12.08,2013-11-12 14:45:00,
2013-11-12 08:50:00,15.3,7.9,30.07,North,351,0.0,0.0,72,0.00,,---,0.00,VWS V12.08,2013-11-12 14:50:00,
2013-11-12 08:56:00,15.7,8.3,30.06,North,0,0.0,0.0,72,0.00,,---,0.00,VWS V12.08,2013-11-12 14:56:00,
2013-11-12 09:01:00,15.9,8.5,30.07,North,352,0.0,0.0,72,0.00,,---,0.00,VWS V12.08,2013-11-12 15:01:00,
2013-11-12 09:06:00,16.2,8.8,30.07,North,356,0.0,0.0,72,0.00,,---,0.00,VWS V12.08,2013-11-12 15:06:00,
2013-11-12 09:11:00,16.4,8.7,30.07,North,358,0.0,0.0,71,0.00,,---,0.00,VWS V12.08,2013-11-12 15:11:00,
2013-11-12 09:16:00,16.6,8.9,30.06,North,352,0.0,0.0,71,0.00,,---,0.00,VWS V12.08,2013-11-12 15:16:00,
2013-11-12 09:21:00,16.9,9.1,30.06,North,359,0.0,0.0,71,0.00,,---,0.00,VWS V12.08,2013-11-12 15:21:00,
2013-11-12 09:26:00,17.1,9.0,30.07,North,359,0.0,0.0,70,0.00,,---,0.00,VWS V12.08,2013-11-12 15:26:00,
2013-11-12 09:31:00,17.0,8.9,30.07,North,357,0.0,0.0,70,0.00,,---,0.00,VWS V12.08,2013-11-12 15:31:00,
2013-11-12 09:36:00,17.4,9.6,30.07,NW,323,0.0,0.0,71,0.00,,---,0.00,VWS V12.08,2013-11-12 15:36:00,
2013-11-12 09:41:00,17.8,9.7,30.07,NW,324,0.0,0.0,70,0.00,,---,0.00,VWS V12.08,2013-11-12 15:41:00,
2013-11-12 09:46:00,18.0,9.6,30.06,North,355,0.0,0.0,69,0.00,,---,0.00,VWS V12.08,2013-11-12 15:46:00,
2013-11-12 09:51:00,18.1,9.7,30.06,North,355,0.0,1.0,69,0.00,,---,0.00,VWS V12.08,2013-11-12 15:51:00,
2013-11-12 09:56:00,18.3,9.9,30.07,North,349,0.0,1.0,69,0.00,,---,0.00,VWS V12.08,2013-11-12 15:56:00,
2013-11-12 10:01:00,18.4,9.9,30.07,NNW,346,0.0,0.0,69,0.00,,---,0.00,VWS V12.08,2013-11-12 16:01:00,
2013-11-12 10:06:00,18.6,10.1,30.06,North,353,0.0,0.0,69,0.00,,---,0.00,VWS V12.08,2013-11-12 16:06:00,
2013-11-12 10:11:00,19.0,10.8,30.06,NW,324,0.0,0.0,70,0.00,,---,0.00,VWS V12.08,2013-11-12 16:11:00,
2013-11-12 10:16:00,19.2,10.7,30.07,North,359,0.0,0.0,69,0.00,,---,0.00,VWS V12.08,2013-11-12 16:16:00,
2013-11-12 10:21:00,19.6,11.1,30.07,NW,307,0.0,0.0,69,0.00,,---,0.00,VWS V12.08,2013-11-12 16:21:00,
2013-11-12 10:26:00,19.9,11.1,30.06,North,357,0.0,0.0,68,0.00,,---,0.00,VWS V12.08,2013-11-12 16:26:00,
2013-11-12 10:31:00,20.2,11.4,30.05,NW,312,0.0,0.0,68,0.00,,---,0.00,VWS V12.08,2013-11-12 16:31:00,
2013-11-12 10:36:00,20.8,11.9,30.05,North,351,0.0,0.0,68,0.00,,---,0.00,VWS V12.08,2013-11-12 16:36:00,
2013-11-12 10:41:00,20.8,11.6,30.06,NNW,346,0.0,0.0,67,0.00,,---,0.00,VWS V12.08,2013-11-12 16:41:00,
2013-11-12 10:46:00,20.8,11.6,30.06,NW,310,0.0,0.0,67,0.00,,---,0.00,VWS V12.08,2013-11-12 16:46:00,
2013-11-12 10:51:00,21.1,11.9,30.05,NW,305,0.0,0.0,67,0.00,,---,0.00,VWS V12.08,2013-11-12 16:51:00,
2013-11-12 10:57:00,21.3,12.1,30.06,NW,324,0.0,0.0,67,0.00,,---,0.00,VWS V12.08,2013-11-12 16:57:00,
2013-11-12 11:03:00,21.4,11.5,30.05,NNW,343,0.0,0.0,65,0.00,,---,0.00,VWS V12.08,2013-11-12 17:03:00,
2013-11-12 11:08:00,21.7,11.8,30.06,North,349,0.0,0.0,65,0.00,,---,0.00,VWS V12.08,2013-11-12 17:08:00,
2013-11-12 11:13:00,21.8,11.9,30.05,North,357,0.0,1.0,65,0.00,,---,0.00,VWS V12.08,2013-11-12 17:13:00,
2013-11-12 11:19:00,21.9,12.0,30.05,NW,325,0.0,1.0,65,0.00,,---,0.00,VWS V12.08,2013-11-12 17:19:00,
2013-11-12 11:24:00,22.3,12.7,30.05,North,354,0.0,1.0,66,0.00,,---,0.00,VWS V12.08,2013-11-12 17:24:00,
2013-11-12 11:29:00,22.5,12.9,30.05,NW,321,0.0,1.0,66,0.00,,---,0.00,VWS V12.08,2013-11-12 17:29:00,
2013-11-12 11:34:00,22.5,12.2,30.05,North,352,0.0,0.0,64,0.00,,---,0.00,VWS V12.08,2013-11-12 17:34:00,
2013-11-12 11:39:00,22.9,12.9,30.05,NNW,342,0.0,0.0,65,0.00,,---,0.00,VWS V12.08,2013-11-12 17:39:00,
2013-11-12 11:44:00,23.0,12.6,30.05,North,0,0.0,1.0,64,0.00,,---,0.00,VWS V12.08,2013-11-12 17:44:00,
2013-11-12 11:49:00,23.0,12.6,30.04,WNW,287,0.0,1.0,64,0.00,,---,0.00,VWS V12.08,2013-11-12 17:49:00,
2013-11-12 11:54:00,23.0,12.6,30.03,North,357,0.0,1.0,64,0.00,,---,0.00,VWS V12.08,2013-11-12 17:54:00,
2013-11-12 12:00:00,23.5,12.8,30.04,North,0,0.0,1.0,63,0.00,,---,0.00,VWS V12.08,2013-11-12 18:00:00,
2013-11-12 12:05:00,23.5,12.8,30.04,NNW,333,0.0,1.0,63,0.00,,---,0.00,VWS V12.08,2013-11-12 18:05:00,
2013-11-12 12:10:00,23.6,12.5,30.03,North,0,0.0,1.0,62,0.00,,---,0.00,VWS V12.08,2013-11-12 18:10:00,
2013-11-12 12:15:00,24.1,13.0,30.03,North,0,0.0,1.0,62,0.00,,---,0.00,VWS V12.08,2013-11-12 18:15:00,
2013-11-12 12:20:00,24.3,12.8,30.03,North,356,0.0,1.0,61,0.00,,---,0.00,VWS V12.08,2013-11-12 18:20:00,
2013-11-12 12:25:00,24.6,13.4,30.02,NW,304,0.0,1.0,62,0.00,,---,0.00,VWS V12.08,2013-11-12 18:25:00,
2013-11-12 12:31:00,24.7,13.2,30.01,North,352,0.0,0.0,61,0.00,,---,0.00,VWS V12.08,2013-11-12 18:31:00,
2013-11-12 12:36:00,24.5,13.0,30.01,NW,319,0.0,1.0,61,0.00,,---,0.00,VWS V12.08,2013-11-12 18:36:00,
2013-11-12 12:41:00,24.6,13.1,30.00,NNW,339,0.0,1.0,61,0.00,,---,0.00,VWS V12.08,2013-11-12 18:41:00,
2013-11-12 12:46:00,24.7,13.2,30.00,NW,326,1.0,1.0,61,0.00,,---,0.00,VWS V12.08,2013-11-12 18:46:00,
2013-11-12 12:51:00,24.8,13.3,30.00,North,349,0.0,1.0,61,0.00,,---,0.00,VWS V12.08,2013-11-12 18:51:00,
2013-11-12 12:56:00,24.8,12.9,30.00,North,350,0.0,1.0,60,0.00,,---,0.00,VWS V12.08,2013-11-12 18:56:00,
2013-11-12 13:01:00,25.0,13.5,29.99,NW,317,0.0,1.0,61,0.00,,---,0.00,VWS V12.08,2013-11-12 19:01:00,
2013-11-12 13:07:00,25.3,13.4,30.00,NNW,333,0.0,1.0,60,0.00,,---,0.00,VWS V12.08,2013-11-12 19:07:00,
2013-11-12 13:12:00,25.5,13.6,30.00,WNW,290,0.0,1.0,60,0.00,,---,0.00,VWS V12.08,2013-11-12 19:12:00,
2013-11-12 13:17:00,25.5,13.9,30.00,North,357,0.0,1.0,61,0.00,,---,0.00,VWS V12.08,2013-11-12 19:17:00,
2013-11-12 13:23:00,25.8,13.9,30.00,WNW,294,0.0,1.0,60,0.00,,---,0.00,VWS V12.08,2013-11-12 19:23:00,
2013-11-12 13:29:00,26.0,13.6,30.00,North,357,0.0,1.0,59,0.00,,---,0.00,VWS V12.08,2013-11-12 19:29:00,
2013-11-12 13:34:00,26.2,13.8,30.01,North,358,0.0,0.0,59,0.00,,---,0.00,VWS V12.08,2013-11-12 19:34:00,
2013-11-12 13:39:00,26.6,14.2,30.00,North,358,0.0,0.0,59,0.00,,---,0.00,VWS V12.08,2013-11-12 19:39:00,
2013-11-12 13:44:00,26.7,13.9,30.00,North,0,0.0,0.0,58,0.00,,---,0.00,VWS V12.08,2013-11-12 19:44:00,
2013-11-12 13:49:00,27.0,14.2,30.00,NNW,336,0.0,1.0,58,0.00,,---,0.00,VWS V12.08,2013-11-12 19:49:00,
2013-11-12 13:54:00,27.3,14.1,30.00,NNW,345,0.0,1.0,57,0.00,,---,0.00,VWS V12.08,2013-11-12 19:54:00,
2013-11-12 14:00:00,27.2,13.2,30.00,North,359,0.0,1.0,55,0.00,,---,0.00,VWS V12.08,2013-11-12 20:00:00,
2013-11-12 14:06:00,27.0,13.0,30.00,NNW,336,0.0,0.0,55,0.00,,---,0.00,VWS V12.08,2013-11-12 20:06:00,
2013-11-12 14:11:00,27.2,13.2,29.99,North,357,0.0,0.0,55,0.00,,---,0.00,VWS V12.08,2013-11-12 20:11:00,
2013-11-12 14:16:00,27.4,13.4,29.99,NNW,334,0.0,1.0,55,0.00,,---,0.00,VWS V12.08,2013-11-12 20:16:00,
2013-11-12 14:21:00,27.4,13.4,29.99,NW,325,0.0,1.0,55,0.00,,---,0.00,VWS V12.08,2013-11-12 20:21:00,
2013-11-12 14:26:00,27.5,13.5,29.99,North,359,0.0,1.0,55,0.00,,---,0.00,VWS V12.08,2013-11-12 20:26:00,
2013-11-12 14:31:00,27.6,13.6,29.99,NNW,345,0.0,0.0,55,0.00,,---,0.00,VWS V12.08,2013-11-12 20:31:00,
2013-11-12 14:36:00,27.8,13.8,29.99,North,359,0.0,0.0,55,0.00,,---,0.00,VWS V12.08,2013-11-12 20:36:00,
2013-11-12 14:41:00,28.1,13.6,29.99,North,359,0.0,2.0,54,0.00,,---,0.00,VWS V12.08,2013-11-12 20:41:00,
2013-11-12 14:46:00,27.9,12.6,29.99,NW,304,0.0,2.0,52,0.00,,---,0.00,VWS V12.08,2013-11-12 20:46:00,
2013-11-12 14:51:00,28.1,12.8,29.98,North,352,0.0,2.0,52,0.00,,---,0.00,VWS V12.08,2013-11-12 20:51:00,
2013-11-12 14:56:00,28.3,12.5,29.99,North,0,0.0,2.0,51,0.00,,---,0.00,VWS V12.08,2013-11-12 20:56:00,
2013-11-12 15:01:00,28.2,12.9,29.99,North,351,0.0,1.0,52,0.00,,---,0.00,VWS V12.08,2013-11-12 21:01:00,
2013-11-12 15:06:00,28.1,11.9,29.99,NNW,333,0.0,1.0,50,0.00,,---,0.00,VWS V12.08,2013-11-12 21:06:00,
2013-11-12 15:11:00,28.0,12.2,29.98,North,0,0.0,1.0,51,0.00,,---,0.00,VWS V12.08,2013-11-12 21:11:00,
2013-11-12 15:16:00,28.2,12.9,29.98,North,353,0.0,1.0,52,0.00,,---,0.00,VWS V12.08,2013-11-12 21:16:00,
2013-11-12 15:22:00,28.5,13.1,29.98,NW,315,0.0,1.0,52,0.00,,---,0.00,VWS V12.08,2013-11-12 21:22:00,
2013-11-12 15:27:00,28.4,13.0,29.97,North,355,0.0,1.0,52,0.00,,---,0.00,VWS V12.08,2013-11-12 21:27:00,
2013-11-12 15:32:00,28.5,13.1,29.97,North,353,0.0,0.0,52,0.00,,---,0.00,VWS V12.08,2013-11-12 21:32:00,
2013-11-12 15:38:00,28.5,12.7,29.98,North,358,0.0,1.0,51,0.00,,---,0.00,VWS V12.08,2013-11-12 21:38:00,
2013-11-12 15:44:00,28.6,12.3,29.97,NNW,330,0.0,1.0,50,0.00,,---,0.00,VWS V12.08,2013-11-12 21:44:00,
2013-11-12 15:49:00,28.4,12.6,29.97,NW,316,0.0,1.0,51,0.00,,---,0.00,VWS V12.08,2013-11-12 21:49:00,
2013-11-12 15:54:00,28.3,12.5,29.97,North,355,0.0,1.0,51,0.00,,---,0.00,VWS V12.08,2013-11-12 21:54:00,
2013-11-12 15:59:00,28.4,13.0,29.96,North,359,0.0,1.0,52,0.00,,---,0.00,VWS V12.08,2013-11-12 21:59:00,
2013-11-12 16:04:00,28.3,13.4,29.96,North,350,0.0,0.0,53,0.00,,---,0.00,VWS V12.08,2013-11-12 22:04:00,
2013-11-12 16:09:00,28.3,13.4,29.96,WNW,299,0.0,0.0,53,0.00,,---,0.00,VWS V12.08,2013-11-12 22:09:00,
2013-11-12 16:14:00,28.2,13.3,29.95,NNW,348,0.0,1.0,53,0.00,,---,0.00,VWS V12.08,2013-11-12 22:14:00,
2013-11-12 16:19:00,28.3,13.8,29.95,North,357,0.0,1.0,54,0.00,,---,0.00,VWS V12.08,2013-11-12 22:19:00,
2013-11-12 16:25:00,28.0,13.1,29.95,NW,319,0.0,1.0,53,0.00,,---,0.00,VWS V12.08,2013-11-12 22:25:00,
2013-11-12 16:30:00,27.6,13.1,29.95,NW,312,0.0,0.0,54,0.00,,---,0.00,VWS V12.08,2013-11-12 22:30:00,
2013-11-12 16:35:00,27.5,13.1,29.95,NW,322,0.0,0.0,54,0.00,,---,0.00,VWS V12.08,2013-11-12 22:35:00,
2013-11-12 16:40:00,27.3,12.9,29.95,NW,315,0.0,0.0,54,0.00,,---,0.00,VWS V12.08,2013-11-12 22:40:00,
2013-11-12 16:46:00,27.1,13.1,29.95,NW,310,0.0,0.0,55,0.00,,---,0.00,VWS V12.08,2013-11-12 22:46:00,
2013-11-12 16:51:00,26.8,12.8,29.94,NW,308,0.0,0.0,55,0.00,,---,0.00,VWS V12.08,2013-11-12 22:51:00,
2013-11-12 16:56:00,26.6,13.0,29.94,WNW,296,0.0,0.0,56,0.00,,---,0.00,VWS V12.08,2013-11-12 22:56:00,
2013-11-12 17:01:00,26.4,12.8,29.94,WNW,302,0.0,0.0,56,0.00,,---,0.00,VWS V12.08,2013-11-12 23:01:00,
2013-11-12 17:06:00,26.1,12.6,29.94,WNW,296,0.0,0.0,56,0.00,,---,0.00,VWS V12.08,2013-11-12 23:06:00,
2013-11-12 17:12:00,25.9,12.4,29.93,WNW,296,0.0,0.0,56,0.00,,---,0.00,VWS V12.08,2013-11-12 23:12:00,
2013-11-12 17:17:00,25.7,12.2,29.93,WNW,302,0.0,0.0,56,0.00,,---,0.00,VWS V12.08,2013-11-12 23:17:00,
2013-11-12 17:22:00,25.6,12.1,29.94,WNW,297,0.0,0.0,56,0.00,,---,0.00,VWS V12.08,2013-11-12 23:22:00,
2013-11-12 17:28:00,25.4,12.3,29.94,WNW,297,0.0,0.0,57,0.00,,---,0.00,VWS V12.08,2013-11-12 23:28:00,
2013-11-12 17:34:00,25.2,12.1,29.94,NW,306,0.0,0.0,57,0.00,,---,0.00,VWS V12.08,2013-11-12 23:34:00,
2013-11-12 17:40:00,25.0,12.3,29.93,WNW,297,0.0,0.0,58,0.00,,---,0.00,VWS V12.08,2013-11-12 23:40:00,
2013-11-12 17:45:00,25.0,12.3,29.94,WNW,296,0.0,0.0,58,0.00,,---,0.00,VWS V12.08,2013-11-12 23:45:00,
2013-11-12 17:50:00,24.9,12.6,29.94,WNW,298,0.0,0.0,59,0.00,,---,0.00,VWS V12.08,2013-11-12 23:50:00,
2013-11-12 17:55:00,24.8,12.5,29.94,WNW,298,0.0,0.0,59,0.00,,---,0.00,VWS V12.08,2013-11-12 23:55:00,
2013-11-12 18:00:00,24.8,12.9,29.93,WNW,302,0.0,0.0,60,0.00,,---,0.00,VWS V12.08,2013-11-13 00:00:00,
2013-11-12 18:05:00,24.6,12.7,29.93,WNW,299,0.0,0.0,60,0.00,,---,0.00,VWS V12.08,2013-11-13 00:05:00,
2013-11-12 18:10:00,24.5,12.6,29.94,WNW,298,0.0,0.0,60,0.00,,---,0.00,VWS V12.08,2013-11-13 00:10:00,
2013-11-12 18:15:00,24.4,12.5,29.94,WNW,299,0.0,0.0,60,0.00,,---,0.00,VWS V12.08,2013-11-13 00:15:00,
2013-11-12 18:20:00,24.3,12.4,29.93,WNW,301,0.0,0.0,60,0.00,,---,0.00,VWS V12.08,2013-11-13 00:20:00,
2013-11-12 18:25:00,24.3,12.4,29.93,WNW,299,0.0,0.0,60,0.00,,---,0.00,VWS V12.08,2013-11-13 00:25:00,
2013-11-12 18:30:00,24.2,12.7,29.92,WNW,297,0.0,0.0,61,0.00,,---,0.00,VWS V12.08,2013-11-13 00:30:00,
2013-11-12 18:36:00,24.1,12.6,29.93,WNW,297,0.0,0.0,61,0.00,,---,0.00,VWS V12.08,2013-11-13 00:36:00,
2013-11-12 18:41:00,24.0,12.1,29.93,WNW,297,0.0,0.0,60,0.00,,---,0.00,VWS V12.08,2013-11-13 00:41:00,
2013-11-12 18:46:00,23.9,12.4,29.93,WNW,297,0.0,0.0,61,0.00,,---,0.00,VWS V12.08,2013-11-13 00:46:00,
2013-11-12 18:51:00,23.8,12.3,29.92,WNW,297,0.0,0.0,61,0.00,,---,0.00,VWS V12.08,2013-11-13 00:51:00,
2013-11-12 18:56:00,23.7,12.2,29.93,WNW,297,0.0,0.0,61,0.00,,---,0.00,VWS V12.08,2013-11-13 00:56:00,
2013-11-12 19:01:00,23.7,12.2,29.93,WNW,297,0.0,0.0,61,0.00,,---,0.00,VWS V12.08,2013-11-13 01:01:00,
2013-11-12 19:06:00,23.7,12.2,29.92,WNW,297,0.0,0.0,61,0.00,,---,0.00,VWS V12.08,2013-11-13 01:06:00,
2013-11-12 19:11:00,23.5,12.0,29.92,WNW,297,0.0,0.0,61,0.00,,---,0.00,VWS V12.08,2013-11-13 01:11:00,
2013-11-12 19:17:00,23.4,11.9,29.92,WNW,298,0.0,0.0,61,0.00,,---,0.00,VWS V12.08,2013-11-13 01:17:00,
2013-11-12 19:22:00,23.2,12.1,29.92,WNW,298,0.0,0.0,62,0.00,,---,0.00,VWS V12.08,2013-11-13 01:22:00,
2013-11-12 19:27:00,23.2,12.1,29.92,WNW,296,0.0,0.0,62,0.00,,---,0.00,VWS V12.08,2013-11-13 01:27:00,
2013-11-12 19:32:00,23.2,12.1,29.91,WNW,297,0.0,0.0,62,0.00,,---,0.00,VWS V12.08,2013-11-13 01:32:00,
2013-11-12 19:37:00,23.1,12.0,29.91,WNW,297,0.0,0.0,62,0.00,,---,0.00,VWS V12.08,2013-11-13 01:37:00,
2013-11-12 19:42:00,23.0,11.9,29.90,WNW,297,0.0,0.0,62,0.00,,---,0.00,VWS V12.08,2013-11-13 01:42:00,
2013-11-12 19:47:00,22.9,11.8,29.91,WNW,297,0.0,0.0,62,0.00,,---,0.00,VWS V12.08,2013-11-13 01:47:00,
2013-11-12 19:52:00,22.8,11.8,29.90,WNW,297,0.0,0.0,62,0.00,,---,0.00,VWS V12.08,2013-11-13 01:52:00,
2013-11-12 19:57:00,22.7,12.0,29.91,WNW,298,0.0,0.0,63,0.00,,---,0.00,VWS V12.08,2013-11-13 01:57:00,
2013-11-12 20:02:00,22.5,11.8,29.90,WNW,298,0.0,0.0,63,0.00,,---,0.00,VWS V12.08,2013-11-13 02:02:00,
2013-11-12 20:08:00,22.3,11.6,29.90,WNW,298,0.0,0.0,63,0.00,,---,0.00,VWS V12.08,2013-11-13 02:08:00,
2013-11-12 20:14:00,22.2,11.5,29.89,WNW,297,0.0,0.0,63,0.00,,---,0.00,VWS V12.08,2013-11-13 02:14:00,
2013-11-12 20:20:00,22.0,11.4,29.91,WNW,297,0.0,0.0,63,0.00,,---,0.00,VWS V12.08,2013-11-13 02:20:00,
2013-11-12 20:25:00,22.0,11.7,29.90,WNW,297,0.0,0.0,64,0.00,,---,0.00,VWS V12.08,2013-11-13 02:25:00,
2013-11-12 20:30:00,21.9,11.6,29.90,WNW,297,0.0,0.0,64,0.00,,---,0.00,VWS V12.08,2013-11-13 02:30:00,
2013-11-12 20:36:00,21.8,11.5,29.90,WNW,300,0.0,0.0,64,0.00,,---,0.00,VWS V12.08,2013-11-13 02:36:00,
2013-11-12 20:41:00,21.7,11.4,29.91,WNW,301,0.0,0.0,64,0.00,,---,0.00,VWS V12.08,2013-11-13 02:41:00,
2013-11-12 20:46:00,21.7,11.4,29.91,NW,318,0.0,0.0,64,0.00,,---,0.00,VWS V12.08,2013-11-13 02:46:00,
2013-11-12 20:51:00,21.8,11.5,29.90,WNW,298,0.0,0.0,64,0.00,,---,0.00,VWS V12.08,2013-11-13 02:51:00,
2013-11-12 20:56:00,21.7,11.4,29.91,WNW,303,0.0,0.0,64,0.00,,---,0.00,VWS V12.08,2013-11-13 02:56:00,
2013-11-12 21:01:00,21.6,11.3,29.91,WNW,297,0.0,0.0,64,0.00,,---,0.00,VWS V12.08,2013-11-13 03:01:00,
2013-11-12 21:06:00,21.6,11.3,29.91,WNW,298,0.0,0.0,64,0.00,,---,0.00,VWS V12.08,2013-11-13 03:06:00,
2013-11-12 21:12:00,21.7,11.4,29.92,WNW,301,0.0,0.0,64,0.00,,---,0.00,VWS V12.08,2013-11-13 03:12:00,
2013-11-12 21:17:00,21.7,11.4,29.92,WNW,300,0.0,0.0,64,0.00,,---,0.00,VWS V12.08,2013-11-13 03:17:00,
2013-11-12 21:23:00,21.7,11.4,29.92,WNW,299,0.0,0.0,64,0.00,,---,0.00,VWS V12.08,2013-11-13 03:23:00,
2013-11-12 21:28:00,21.7,11.4,29.92,WNW,298,0.0,0.0,64,0.00,,---,0.00,VWS V12.08,2013-11-13 03:28:00,
2013-11-12 21:33:00,21.6,11.3,29.92,WNW,298,0.0,0.0,64,0.00,,---,0.00,VWS V12.08,2013-11-13 03:33:00,
2013-11-12 21:39:00,21.4,11.1,29.92,NW,304,0.0,0.0,64,0.00,,---,0.00,VWS V12.08,2013-11-13 03:39:00,
2013-11-12 21:44:00,21.2,10.9,29.91,WNW,298,0.0,0.0,64,0.00,,---,0.00,VWS V12.08,2013-11-13 03:44:00,
2013-11-12 21:50:00,21.1,10.8,29.91,WNW,296,0.0,0.0,64,0.00,,---,0.00,VWS V12.08,2013-11-13 03:50:00,
2013-11-12 21:55:00,21.0,11.1,29.92,WNW,297,0.0,0.0,65,0.00,,---,0.00,VWS V12.08,2013-11-13 03:55:00,
2013-11-12 22:00:00,20.8,10.9,29.91,WNW,297,0.0,0.0,65,0.00,,---,0.00,VWS V12.08,2013-11-13 04:00:00,
2013-11-12 22:05:00,20.6,10.7,29.91,WNW,297,0.0,0.0,65,0.00,,---,0.00,VWS V12.08,2013-11-13 04:05:00,
2013-11-12 22:10:00,20.5,10.6,29.91,WNW,297,0.0,0.0,65,0.00,,---,0.00,VWS V12.08,2013-11-13 04:10:00,
2013-11-12 22:15:00,20.6,11.1,29.90,WNW,297,0.0,0.0,66,0.00,,---,0.00,VWS V12.08,2013-11-13 04:15:00,
2013-11-12 22:20:00,20.5,11.0,29.90,WNW,300,0.0,0.0,66,0.00,,---,0.00,VWS V12.08,2013-11-13 04:20:00,
2013-11-12 22:25:00,20.4,10.9,29.90,WNW,299,0.0,0.0,66,0.00,,---,0.00,VWS V12.08,2013-11-13 04:25:00,
2013-11-12 22:30:00,20.1,10.6,29.89,NW,307,0.0,0.0,66,0.00,,---,0.00,VWS V12.08,2013-11-13 04:30:00,
2013-11-12 22:36:00,20.1,10.6,29.89,NNW,342,0.0,0.0,66,0.00,,---,0.00,VWS V12.08,2013-11-13 04:36:00,
2013-11-12 22:41:00,20.1,10.9,29.88,WNW,299,0.0,0.0,67,0.00,,---,0.00,VWS V12.08,2013-11-13 04:41:00,
2013-11-12 22:46:00,20.3,11.1,29.89,WNW,299,0.0,0.0,67,0.00,,---,0.00,VWS V12.08,2013-11-13 04:46:00,
2013-11-12 22:52:00,20.5,11.0,29.88,WNW,296,0.0,0.0,66,0.00,,---,0.00,VWS V12.08,2013-11-13 04:52:00,
2013-11-12 22:57:00,20.5,11.0,29.89,WNW,297,0.0,0.0,66,0.00,,---,0.00,VWS V12.08,2013-11-13 04:57:00,
2013-11-12 23:01:00,20.4,10.9,29.89,WNW,297,0.0,0.0,66,0.00,,---,0.00,VWS V12.08,2013-11-13 05:01:00,
2013-11-12 23:03:00,20.4,10.9,29.88,NW,320,0.0,0.0,66,0.00,,---,0.00,VWS V12.08,2013-11-13 05:03:00,
2013-11-12 23:04:00,20.3,10.8,29.87,WNW,298,0.0,0.0,66,0.00,,---,0.00,VWS V12.08,2013-11-13 05:04:00,
2013-11-12 23:05:00,20.2,10.7,29.87,WNW,297,0.0,0.0,66,0.00,,---,0.00,VWS V12.08,2013-11-13 05:05:00,
2013-11-12 23:10:00,20.0,10.5,29.86,SW,225,0.0,0.0,66,0.00,,---,0.00,VWS V12.08,2013-11-13 05:10:00,
2013-11-12 23:11:00,20.0,10.5,29.86,West,265,0.0,0.0,66,0.00,,---,0.00,VWS V12.08,2013-11-13 05:11:00,
2013-11-12 23:13:00,19.9,10.4,29.85,West,263,0.0,0.0,66,0.00,,---,0.00,VWS V12.08,2013-11-13 05:13:00,
2013-11-12 23:18:00,19.7,10.2,29.86,NW,312,0.0,0.0,66,0.00,,---,0.00,VWS V12.08,2013-11-13 05:18:00,
2013-11-12 23:23:00,19.4,10.2,29.85,NW,316,0.0,0.0,67,0.00,,---,0.00,VWS V12.08,2013-11-13 05:23:00,
2013-11-12 23:28:00,19.4,10.2,29.86,NNW,328,0.0,0.0,67,0.00,,---,0.00,VWS V12.08,2013-11-13 05:28:00,
2013-11-12 23:33:00,19.3,10.5,29.85,NW,321,0.0,0.0,68,0.00,,---,0.00,VWS V12.08,2013-11-13 05:33:00,
2013-11-12 23:38:00,19.3,10.5,29.85,NW,323,0.0,0.0,68,0.00,,---,0.00,VWS V12.08,2013-11-13 05:38:00,
2013-11-12 23:43:00,19.5,10.7,29.86,North,350,0.0,0.0,68,0.00,,---,0.00,VWS V12.08,2013-11-13 05:43:00,
2013-11-12 23:48:00,19.7,10.9,29.85,WSW,253,0.0,0.0,68,0.00,,---,0.00,VWS V12.08,2013-11-13 05:48:00,
2013-11-12 23:53:00,19.9,10.7,29.85,NNW,343,0.0,0.0,67,0.00,,---,0.00,VWS V12.08,2013-11-13 05:53:00,
2013-11-12 23:58:00,19.9,10.4,29.84,North,353,0.0,0.0,66,0.00,,---,0.00,VWS V12.08,2013-11-13 05:58:00,